This is the latest recevied weather packets stored in our database for station/object DJ0JJ-11. If no packets are shown the sender has not sent any weather packets the latest 1 day(s).
| Time | Temp. | Humidity | Pressure | Rain* | Wind** | Luminosity | Snow |
|---|---|---|---|---|---|---|---|
| 1777712325 | 19.44° C | 40% | 1023.5 hPa | - | - | - | - |
| 1777711425 | 19.44° C | 40% | 1023.5 hPa | - | - | - | - |
| 1777710525 | 18.89° C | 45% | 1023.6 hPa | - | - | - | - |
| 1777709624 | 17.22° C | 44% | 1023.7 hPa | - | - | - | - |
| 1777708724 | 17.78° C | 47% | 1023.8 hPa | - | - | - | - |
| 1777707824 | 16.11° C | 49% | 1023.8 hPa | - | - | - | - |
| 1777706924 | 15.56° C | 51% | 1023.9 hPa | - | - | - | - |
| 1777706024 | 15° C | 53% | 1023.8 hPa | - | - | - | - |
| 1777705124 | 14.44° C | 57% | 1024 hPa | - | - | - | - |
| 1777704224 | 13.89° C | 63% | 1024 hPa | - | - | - | - |
| 1777703323 | 12.78° C | 69% | 1024 hPa | - | - | - | - |
| 1777702423 | 12.22° C | 71% | 1024 hPa | - | - | - | - |
| 1777701523 | 11.11° C | 71% | 1024 hPa | - | - | - | - |
| 1777700623 | 10.56° C | 68% | 1023.9 hPa | - | - | - | - |
| 1777699723 | 10° C | 71% | 1024 hPa | - | - | - | - |
| 1777698823 | 10.56° C | 65% | 1023.9 hPa | - | - | - | - |
| 1777697923 | 10° C | 65% | 1023.7 hPa | - | - | - | - |
| 1777697022 | 9.44° C | 66% | 1023.7 hPa | - | - | - | - |
| 1777696122 | 10° C | 64% | 1023.7 hPa | - | - | - | - |
| 1777695222 | 10° C | 64% | 1023.7 hPa | - | - | - | - |
* Rain since midnight (hover to see other rain measurements)
** Current wind speed in m/s (hover to see current wind gust speed)